DW0529 Weather Reports


Display with metric or nautical units.
time (UTC)temp
F
wind
direction
speed
MPH
gust
MPH
rain 1hr
in
rain 24hr
in
rain mn
in
humidity
%
barometer
mb
20260506044814 53 194 0.0 0.0 0.00 0.00 0.00 84 971.3
20260506043742 53 194 0.0 0.0 0.00 0.00 0.00 82 971.2
20260506042729 53 194 0.0 0.0 0.00 0.00 0.00 82 971.0
20260506040525 54 194 0.0 0.0 0.00 0.00 0.00 79 970.7
20260506035550 54 194 0.0 0.0 0.00 0.00 0.00 79 970.7
20260506034603 54 194 0.0 0.0 0.00 0.00 0.00 78 970.6
20260506030257 56 194 0.0 0.0 0.00 0.00 0.00 73 970.0
20260506024203 57 194 0.0 0.0 0.00 0.00 0.00 73 969.7
20260506023217 58 194 0.0 0.0 0.00 0.00 0.00 71 969.7
20260506021126 58 194 0.0 1.0 0.00 0.00 0.00 71 969.3
20260506020104 58 194 0.0 2.0 0.00 0.00 0.00 71 969.2
20260506015057 58 194 0.0 2.0 0.00 0.00 0.00 71 969.3
20260506014053 58 194 0.0 2.0 0.00 0.00 0.00 71 969.2
20260506011930 58 217 1.0 3.0 0.00 0.00 0.00 68 969.1
20260506005835 57 188 0.0 0.0 0.00 0.00 0.00 69 969.2
20260506004844 57 165 0.0 4.0 0.00 0.00 0.00 68 969.1
20260506003840 58 193 0.0 4.0 0.00 0.00 0.00 69 969.1
20260506002830 58 185 0.0 3.0 0.00 0.00 0.00 69 968.9
20260506001807 58 182 0.0 5.0 0.00 0.00 0.00 70 969.0
20260506000829 58 219 1.0 5.0 0.00 0.00 0.00 69 968.8
20260505235835 58 229 1.0 6.0 0.00 0.00 0.00 68 968.9
20260505233733 59 191 1.0 6.0 0.00 0.00 0.00 65 968.9
20260505231603 59 203 2.0 7.0 0.00 0.00 0.00 65 969.0
20260505230536 58 194 2.0 7.0 0.00 0.00 0.00 68 969.0
20260505225546 57 193 2.0 6.0 0.00 0.00 0.00 70 969.1
20260505224552 57 194 2.0 8.0 0.00 0.00 0.00 69 969.2
20260505223605 57 142 3.0 8.0 0.00 0.00 0.00 69 969.1
20260505222624 58 215 3.0 7.0 0.00 0.00 0.00 65 969.3
20260505221642 59 187 2.0 7.0 0.00 0.00 0.00 61 969.3
20260505220657 60 218 2.0 8.0 0.00 0.00 0.00 55 969.3
20260505215638 61 146 2.0 9.0 0.00 0.00 0.00 54 969.4
20260505214657 61 214 2.0 9.0 0.00 0.00 0.00 52 969.5
20260505213701 60 183 3.0 9.0 0.00 0.00 0.00 52 969.5
20260505212640 61 156 3.0 10.0 0.00 0.00 0.00 51 969.5
20260505211634 61 231 3.0 10.0 0.00 0.00 0.00 51 969.5
20260505210658 61 219 2.0 8.0 0.00 0.00 0.00 52 969.6
20260505205630 59 173 2.0 9.0 0.00 0.00 0.00 56 969.6
20260505204623 59 215 2.0 9.0 0.00 0.00 0.00 55 969.5
20260505203636 60 223 2.0 9.0 0.00 0.00 0.00 55 969.5
20260505200442 61 182 2.0 8.0 0.00 0.00 0.00 53 969.6
20260505195418 62 195 2.0 7.0 0.00 0.00 0.00 49 969.5
20260505194408 63 165 2.0 8.0 0.00 0.00 0.00 50 969.6
20260505193346 62 202 3.0 8.0 0.00 0.00 0.00 47 969.6
20260505192346 62 240 2.0 7.0 0.00 0.00 0.00 50 969.6
20260505191328 62 148 2.0 7.0 0.00 0.00 0.00 53 969.6
20260505185208 62 221 1.0 6.0 0.00 0.00 0.00 56 969.7
20260505183016 62 217 0.0 4.0 0.00 0.00 0.00 61 969.6
20260505182015 61 200 0.0 4.0 0.00 0.00 0.00 61 969.6
20260505175855 59 226 1.0 5.0 0.00 0.00 0.00 64 969.7
20260505174845 58 206 1.0 6.0 0.00 0.00 0.00 66 969.6
20260505173848 59 202 0.0 6.0 0.00 0.00 0.00 66 969.4
20260505172814 59 170 0.0 5.0 0.00 0.00 0.00 68 969.3
20260505171821 59 170 0.0 5.0 0.00 0.00 0.00 66 969.3
20260505170820 59 153 0.0 1.0 0.00 0.00 0.00 60 969.3
20260505163436 59 152 0.0 3.0 0.00 0.00 0.00 66 969.0
20260505162454 59 153 0.0 3.0 0.00 0.00 0.00 64 968.9
20260505161420 58 140 0.0 3.0 0.00 0.00 0.00 68 968.9
20260505160356 57 142 0.0 0.0 0.00 0.00 0.00 69 968.8
20260505153314 57 142 0.0 3.0 0.00 0.00 0.00 69 968.8
20260505152259 55 243 0.0 1.0 0.00 0.00 0.00 71 968.8
20260505151304 54 243 0.0 0.0 0.00 0.00 0.00 77 968.7
20260505150314 54 243 0.0 0.0 0.00 0.00 0.00 76 968.6
20260505122429 50 230 0.0 0.0 0.00 0.00 0.00 80 968.2
20260505121427 50 230 0.0 0.0 0.00 0.00 0.00 79 968.2
20260505120448 51 230 0.0 0.0 0.00 0.00 0.00 78 968.3
20260505115435 51 230 0.0 0.0 0.00 0.00 0.00 77 968.3
20260505114401 51 230 0.0 0.0 0.00 0.00 0.00 77 968.3
20260505113329 51 230 0.0 0.0 0.00 0.00 0.00 75 968.3
20260505112258 52 230 0.0 0.0 0.00 0.00 0.00 74 968.2
20260505111229 52 230 0.0 0.0 0.00 0.00 0.00 74 968.2
20260505110234 52 230 0.0 0.0 0.00 0.00 0.00 74 968.2
20260505102038 53 230 0.0 0.0 0.00 0.00 0.00 77 968.4
20260505101012 53 230 0.0 0.0 0.00 0.00 0.00 78 968.4
20260505100024 53 230 0.0 0.0 0.00 0.00 0.00 79 968.5
20260505095036 53 331 0.0 0.0 0.00 0.00 0.00 78 968.5
20260505094037 53 331 0.0 0.0 0.00 0.00 0.00 78 968.6
20260505093038 53 331 0.0 0.0 0.00 0.00 0.00 78 968.7
20260505092053 53 331 0.0 2.0 0.00 0.00 0.00 78 968.8
20260505091027 53 331 1.0 3.0 0.00 0.00 0.00 77 969.0
20260505090020 53 331 1.0 3.0 0.00 0.00 0.00 77 969.0
20260505083916 53 333 0.0 2.0 0.00 0.00 0.00 77 969.2
20260505082855 53 332 0.0 2.0 0.00 0.00 0.00 78 969.3
20260505081904 53 331 0.0 3.0 0.00 0.00 0.00 77 969.3
20260505075729 53 323 0.0 0.0 0.00 0.00 0.00 79 969.4
20260505074709 54 328 0.0 2.0 0.00 0.00 0.00 80 969.5
20260505073730 54 333 0.0 3.0 0.00 0.00 0.00 82 969.5
20260505072722 54 333 1.0 3.0 0.00 0.00 0.00 82 969.6
20260505071733 54 332 0.0 3.0 0.00 0.00 0.00 83 969.6
20260505070712 54 332 1.0 3.0 0.00 0.00 0.00 84 969.6
20260505065734 53 187 0.0 0.0 0.00 0.00 0.00 86 969.6
20260505064736 53 187 0.0 0.0 0.00 0.00 0.00 88 969.7
20260505063737 53 187 0.0 0.0 0.00 0.00 0.00 91 969.6
20260505061649 53 187 0.0 0.0 0.00 0.00 0.00 92 969.6
20260505060657 53 187 0.0 0.0 0.00 0.00 0.00 91 969.6
20260505055704 53 187 0.0 0.0 0.00 0.00 0.00 91 969.6
20260505054655 53 187 0.0 0.0 0.00 0.00 0.00 91 969.7
20260505052627 53 187 0.0 0.0 0.00 0.00 0.00 90 969.8
20260505051641 53 187 0.0 0.0 0.00 0.00 0.00 90 969.8